ORBCOMM FM 5 DEB

Satellite information

Favourite Embed

Satellite Type and Status

DEBRISIN ORBIT

Key statistics

Satellite ORBCOMM FM 5 DEB at a glance.

Uptime

10218

Days in orbit

Revolutions

≈ 14.5

Per day

Orbit

LEO

Low Earth Orbit

Inclination

45.0

Latest

Satellite identification and parameters

Extended collection of information and parameters for ORBCOMM FM 5 DEB.

Object identification

Identified? True

Debris? True

Object name: ORBCOMM FM 5 DEB

International designator: 1997-084L

Object number (NORAD): 50140

Object ID (CCSDS): 50140

Country: ORBITAL TELECOMMUNICATIONS SATELLITE (GLOBALSTAR) (ORB)

Current information (Y/N): Y

RCS size: SMALL

Orbital parameters

Period: 99.632 minutes

Inclination: 45.0144 deg

SMA: 7119.136 km

Apoapsis: 743.777 km

Periapsis: 738.224 km

RAAN: 234.3085 deg

Eccentricy: 0.00038999

Argument of periapsis: 38.312 deg

Mean anomaly: 321.8008 deg

Mean motion: 14.45312826 rev/day

Mean motion (dot): 0.00001875 rev/day2

B* drag term: 0.00056963425 1/REarth

Two-line elements (TLE)

Creation date: Dec. 13, 2025, 4:32 a.m.

Reference frame: TEME

Reference center: EARTH

Epoch: Dec. 12, 2025, 10:48 p.m. UTC

TLE line 0: 0 ORBCOMM FM 5 DEB

TLE line 1: 1 50140U 97084L 25346.95004179 .00001875 00000-0 56963-3 0 9996

TLE line 2: 2 50140 45.0144 234.3085 0003900 38.3120 321.8008 14.45312826212850

Live tracking on map

Real-time ground track for satellite ORBCOMM FM 5 DEB.

In-orbit conjunctions

A list of the most updated potential collisions computed for object ORBCOMM FM 5 DEB.

Target Orbit TCA Probability of collision Miss distance Type
CZ-6A DEB LEO 2025-02-01 22:01:55 0.0002764249 832.0 (m) DEBRIS
FENGYUN 1C DEB SSO 2025-01-20 22:35:32 0.0003912047 82.0 (m) DEBRIS

Associated space launch

ORBCOMM FM 5 DEB was lifted into orbit during the mission ‘Pegasus XL HAPS | Orbcomm-A1 - A8’, on board a Pegasus XL HAPS space rocket.

The launch took place on Dec. 23, 1997, 7:11 p.m. from Wallops Flight Facility.

For more information about the launch, click the button.

Launch to space Pegasus XL HAPS | Orbcomm-A1 - A8
Pegasus XL HAPS | Orbcomm-A1 - A8

Agency: N/A

Status: Launch Successful

Launch date: Dec. 23, 1997, 7:11 p.m. UTC

Rocket: Pegasus XL HAPS

Launch pad: Wallops Flight Facility

Location: Air launch to orbit

...

Latest news about this satellite

There are no fresh news available about this satellite. Check back as we update our databases every day.


Newsletter sign-up

Weekly statistics, charts and insights to help you stay on top of the space industry.